TimePDT,TemperatureF,Dew PointF,Humidity,Sea Level PressureIn,VisibilityMPH,Wind Direction,Wind SpeedMPH,Gust SpeedMPH,PrecipitationIn,Events,Conditions,WindDirDegrees,DateUTC
12:53 AM,43.0,39.0,86,30.35,10.0,Calm,Calm,-,N/A,,Clear,0,2013-04-22 07:53:00
1:53 AM,42.1,39.0,89,30.35,10.0,Calm,Calm,-,N/A,,Clear,0,2013-04-22 08:53:00
2:53 AM,37.9,37.0,97,30.36,10.0,Calm,Calm,-,N/A,,Clear,0,2013-04-22 09:53:00
3:53 AM,37.0,35.1,93,30.38,10.0,Calm,Calm,-,N/A,,Clear,0,2013-04-22 10:53:00
4:53 AM,39.9,37.9,93,30.39,10.0,Calm,Calm,-,N/A,,Clear,0,2013-04-22 11:53:00
5:53 AM,37.0,35.1,93,30.40,10.0,Calm,Calm,-,N/A,,Clear,0,2013-04-22 12:53:00
6:53 AM,41.0,37.9,89,30.42,10.0,Calm,Calm,-,0.01,,Partly Cloudy,0,2013-04-22 13:53:00
7:53 AM,44.1,39.9,85,30.44,10.0,Calm,Calm,-,N/A,,Clear,0,2013-04-22 14:53:00
8:53 AM,48.0,39.0,71,30.45,10.0,North,3.5,-,N/A,,Clear,350,2013-04-22 15:53:00
9:53 AM,50.0,39.9,68,30.45,10.0,NW,4.6,-,N/A,,Clear,310,2013-04-22 16:53:00
10:53 AM,55.0,42.1,62,30.45,10.0,WNW,8.1,-,N/A,,Clear,290,2013-04-22 17:53:00
11:53 AM,59.0,34.0,39,30.44,10.0,Variable,3.5,-,N/A,,Clear,0,2013-04-22 18:53:00
12:53 PM,62.1,27.0,26,30.42,10.0,ESE,15.0,21.9,N/A,,Clear,110,2013-04-22 19:53:00
1:53 PM,63.0,24.1,23,30.40,10.0,ENE,12.7,18.4,N/A,,Clear,70,2013-04-22 20:53:00
2:53 PM,64.0,25.0,23,30.39,10.0,East,8.1,-,N/A,,Clear,80,2013-04-22 21:53:00
3:53 PM,64.9,27.0,24,30.38,10.0,Variable,6.9,-,N/A,,Clear,0,2013-04-22 22:53:00
4:53 PM,63.0,32.0,31,30.36,10.0,SSW,4.6,-,N/A,,Clear,210,2013-04-22 23:53:00
5:53 PM,64.9,30.0,27,30.35,10.0,West,3.5,-,N/A,,Clear,280,2013-04-23 00:53:00
6:53 PM,64.0,28.9,27,30.35,10.0,Calm,Calm,-,N/A,,Clear,0,2013-04-23 01:53:00
7:53 PM,62.1,33.1,34,30.36,10.0,North,3.5,-,N/A,,Clear,350,2013-04-23 02:53:00
8:53 PM,57.9,35.1,42,30.37,10.0,NW,3.5,-,N/A,,Clear,320,2013-04-23 03:53:00
9:53 PM,55.0,34.0,45,30.40,10.0,NNW,4.6,-,N/A,,Clear,330,2013-04-23 04:53:00
10:53 PM,46.9,36.0,66,30.39,10.0,Calm,Calm,-,N/A,,Clear,0,2013-04-23 05:53:00
11:53 PM,46.0,36.0,68,30.39,10.0,Calm,Calm,-,N/A,,Clear,0,2013-04-23 06:53:00